Flag for United Kingdom Weather past 2 weeks in Saint Helier, Jersey, United Kingdom

Now
57 °F

Sunny.


Feels Like: 55 °F
Forecast: 56 / 64 °F
Wind: 9 mph from East

Location: Jersey Airport

Current Time: Sep 22, 2014 at 7:52:44 PM

Latest Report: Sep 22, 2014 at 6:50 PM


Visibility: 10 mi

Pressure: 30.27 "Hg

Humidity: 77%

Dew point: 50 °F

Location of Saint HelierLocation

Historic Weather in Saint Helier — Graph

°F

Saint Helier temperature yesterday

Maximum temperature yesterday: 64 °F (at 11:20 AM)
Minimum temperature yesterday: 57 °F (at 8:50 PM)
Average temperature yesterday: 62 °F

Past Weeks' High & Low Weather Summary

 TemperatureHumidityPressure
High77 °F (Sep 16, 1:20 PM)100% (Sep 8, 6:50 AM)30.30 "Hg (Sep 8, 6:50 AM)
Low54 °F (Sep 22, 6:50 AM)51% (Sep 16, 4:20 PM)29.68 "Hg (Sep 18, 3:50 AM)
Average65 °F80%30.01 "Hg
* Reported Sep 7 6:20 PM — Sep 22 6:20 PM, Saint Helier, Weather by CustomWeather, © 2014

Note: Actual official high and low records may vary slightly from our data, if they occured in-between our weather recording intervals... More about our weather records

Advertising

Saint Helier weather history for previous 24 hours

 ConditionsComfort  
Time TempWeatherWind HumidityBarometerVisibility
6:20 PM
Sep 22
59 °FPassing clouds.6 mph72%30.24 "HgN/A
5:50 PM59 °FPassing clouds.10 mph72%30.24 "HgN/A
5:20 PM61 °FPassing clouds.7 mph68%30.24 "HgN/A
4:50 PM61 °FPassing clouds.10 mph68%30.24 "HgN/A
4:20 PM63 °FPassing clouds.8 mph64%30.24 "HgN/A
3:50 PM63 °FPassing clouds.17 mph64%30.27 "HgN/A
3:20 PM63 °FPassing clouds.13 mph64%30.27 "HgN/A
2:50 PM63 °FPassing clouds.12 mph64%30.27 "HgN/A
2:20 PM63 °FPassing clouds.10 mph64%30.27 "HgN/A
1:50 PM64 °FPassing clouds.8 mph60%30.27 "HgN/A
1:20 PM63 °FPassing clouds.7 mph64%30.27 "HgN/A
12:50 PM63 °FPassing clouds.7 mph64%30.30 "HgN/A
12:20 PM64 °FPassing clouds.12 mph64%30.30 "HgN/A
11:50 AM63 °FPassing clouds.10 mph68%30.30 "HgN/A
11:20 AM63 °FScattered clouds.12 mph64%30.30 "HgN/A
10:50 AM61 °FPartly sunny.10 mph68%30.30 "HgN/A
10:20 AM61 °FScattered clouds.12 mph68%30.30 "HgN/A
9:50 AM61 °FPassing clouds.8 mph72%30.30 "HgN/A
9:20 AM61 °FPassing clouds.8 mph68%30.30 "HgN/A
8:50 AM59 °FPassing clouds.13 mph77%30.30 "HgN/A
8:20 AM59 °FPassing clouds.6 mph82%30.30 "HgN/A
7:50 AM57 °FPassing clouds.7 mph82%30.27 "HgN/A
7:20 AM55 °FPassing clouds.8 mph88%30.30 "HgN/A
6:50 AM54 °FPassing clouds.7 mph94%30.27 "HgN/A
6:20 AM55 °FPassing clouds.7 mph88%30.27 "HgN/A
5:50 AM55 °FPassing clouds.9 mph88%30.27 "HgN/A
5:20 AM57 °FPassing clouds.8 mph88%30.27 "HgN/A
4:50 AM57 °FPassing clouds.5 mph82%30.27 "HgN/A
4:20 AM57 °FPassing clouds.9 mph82%30.27 "HgN/A
3:50 AM59 °FPassing clouds.7 mph82%30.27 "HgN/A
9:20 PM
Sep 21
59 °FPassing clouds.6 mph72%30.27 "HgN/A
8:50 PM57 °FPassing clouds.7 mph77%30.27 "HgN/A
8:20 PM59 °FPassing clouds.8 mph72%30.27 "HgN/A
7:50 PM59 °FPassing clouds.7 mph72%30.27 "HgN/A
7:20 PM59 °FPassing clouds.10 mph72%30.24 "HgN/A
Weather by CustomWeather, © 2014

See weather overviewHow to use our weather pages